FENGYUN 1C DEB

Satellite information

Favourite Embed

Satellite Type and Status

DEBRISIN ORBIT

Key statistics

Satellite FENGYUN 1C DEB at a glance.

Uptime

9714

Days in orbit

Revolutions

≈ 14.2

Per day

Orbit

SSO

Sun Synchronous Orbit

Inclination

99.0

Latest

Satellite identification and parameters

Extended collection of information and parameters for FENGYUN 1C DEB.

Object identification

Identified? True

Debris? True

Object name: FENGYUN 1C DEB

International designator: 1999-025BDS

Object number (NORAD): 31024

Object ID (CCSDS): 31024

Country: PEOPLES REPUBLIC OF CHINA (PRC)

Current information (Y/N): Y

RCS size: SMALL

Orbital parameters

Period: 101.347 minutes

Inclination: 99.043 deg

SMA: 7200.591 km

Apoapsis: 876.57 km

Periapsis: 768.342 km

RAAN: 259.3078 deg

Eccentricy: 0.0075152

Argument of periapsis: 126.7901 deg

Mean anomaly: 234.0202 deg

Mean motion: 14.20857682 rev/day

Mean motion (dot): 0.00000863 rev/day2

B* drag term: 0.00040873 1/REarth

Two-line elements (TLE)

Creation date: Dec. 12, 2025, 7:26 a.m.

Reference frame: TEME

Reference center: EARTH

Epoch: Dec. 11, 2025, 11:38 p.m. UTC

TLE line 0: 0 FENGYUN 1C DEB

TLE line 1: 1 31024U 99025BDS 25345.98509405 .00000863 00000-0 40873-3 0 9996

TLE line 2: 2 31024 99.0430 259.3078 0075152 126.7901 234.0202 14.20857682966936

Live tracking on map

Real-time ground track for satellite FENGYUN 1C DEB.

In-orbit conjunctions

A list of the most updated potential collisions computed for object FENGYUN 1C DEB.

Target Orbit TCA Probability of collision Miss distance Type
COSMOS 2251 DEB LEO 2025-10-24 17:14:43 0.0001041056 137.0 (m) DEBRIS
SL-16 R/B LEO 2025-09-03 21:17:06 0.0006407273 57.0 (m) ROCKET BODY
CZ-6A DEB LEO 2025-07-01 00:20:46 0.000210004 107.0 (m) DEBRIS
SL-18 DEB LEO 2025-02-19 03:47:33 0.0001310638 236.0 (m) DEBRIS
FENGYUN 1C DEB SSO 2024-11-12 01:43:26 0.0008019365 412.0 (m) DEBRIS

Associated space launch

Chinese polar orbiting meteorological satellite

FENGYUN 1C DEB was lifted into orbit during the mission ‘Long March 4B | Feng Yun 1C’, on board a Long March 4B space rocket.

The launch took place on May 10, 1999, 1:33 a.m. from Launch Complex 7.

For more information about the launch, click the button.

Launch to space Long March 4B | Feng Yun 1C
Long March 4B | Feng Yun 1C

Agency: N/A

Status: Launch Successful

Launch date: May 10, 1999, 1:33 a.m. UTC

Rocket: Long March 4B

Launch pad: Launch Complex 7

Location: Taiyuan Satellite Launch Center, People's Republic of China

...

Latest news about this satellite

There are no fresh news available about this satellite. Check back as we update our databases every day.


Newsletter sign-up

Weekly statistics, charts and insights to help you stay on top of the space industry.